IUS DEB, 43365

Orbit data source: Space-Track

IUS DEB, 43365 is space debris originally from a launch on Fri, 23 Jul 1999 UTC launched from the Air Force Eastern Test Range (AFETR). Debris objects in space refer to the collection of defunct objects orbiting the Earth. Examples of debris include non-operational satellites, rocket bodies, and fragments generated from explosions, collisions, or faulty payload assembly.

Loading next visibility...
IUS DEB details
Identifier
43365, 1999-040N
Orbit
Active
Last TLE update3 weeks ago
Origin
Flag of USGSFC (US)
ManufacturerBoeing/Kent
MissionSpacecraft
Bus & MotorUnknown
MassUnknown
Launch date (UTC)
1999-07-23 (25 years ago)
Launch vehicleUnknown
Launch site
Air Force Eastern Test Range (AFETR)
Object type
Payload
Rocket body
Debris
Shape & HBRUnknown
Radar Cross SectionSmall (<0.1 m²)

Expand to show TLE details & history

TLE from 3 weeks ago
0 IUS DEB
1 43365U 99040N   24338.26050280  .00000018  00000-0  00000-0 0  9995
2 43365  27.7026 314.4044 2883213 178.3668 182.8905  7.22401124312454
Epoch: 2024-12-03T06:15Z
Definitive object data (Epoch: 2024-12-03T06:15:07.441Z)
Latitude0.00001°
Longitude148.05086°
Altitude8,180.332 km
Speed4.417 km/s
True Right ascension20h 57m 37s
True Declination0° 00' 00"
Sunlit
Object was in daylight at TLE epoch
Visualization TLE readout
Latitude18.92181°
Longitude-105.36134°
Altitude4,338.098 km
Speed6.257 km/s
Apparent Right ascension02h 14m 47s
Apparent Declination-3° 18' 09"
Sunlit
Object is in full shadow
Visualization observer readout
Local Sidereal Time09:28:12
Azimuth279.439° WNW
Elevation-16.146°
Doppler factor1
Orbital elements
Apogee altitude8,188.387 km
Perigee altitude1,668.524 km
Semi-major axis11,306.593 km
Eccentricity0.2883213
Inclination27.7026°
RAAN314.4044°
Arg. of periapsis178.3668°
True anomaly181.66774°
Mean anomaly182.8905°
Eccentric anomaly182.24375°
Mean motion1.80528 °/min
BSTARUnknown
Orbital period199.41 mins
Loading maneuver chart data...
Loading historical data...
Loading historical data...
Loading historical data...
Loading historical data...
Loading historical data...
Loading historical data...
Loading historical data...

IUS DEB Visibility forecast

Observer location: undefined°, undefined

Span
Click to sort rows by Start time (UTC) header in descending order
Start Az.
Max El. time (UTC)
Max El. Az.
Max El.
End time (UTC)
End Az.
64 mins2024-12-26 18:05:04.536Z170.83° S2024-12-26 18:32:04.536Z126.659° SE21.744°2024-12-26 19:09:04.536Z86.741° E
94 mins2024-12-26 21:35:04.536Z224.642° SW2024-12-26 22:23:04.536Z155.608° SSE40.458°2024-12-26 23:09:04.536Z88.878° E
82 mins2024-12-27 01:26:04.536Z261.221° W2024-12-27 02:21:04.536Z190.514° SSW42.165°2024-12-27 02:48:04.536Z116.981° SE
43 mins2024-12-27 05:34:04.536Z275.387° WNW2024-12-27 06:03:04.536Z224.593° SW27.789°2024-12-27 06:17:04.536Z170.659° S
|